ヒル彗星

375P/Hill (2018)

English version
Home page
Updated on June 14, 2021

---------------------------------------------------------------------

・ プロフィール

符号 375P/2018 T1
検出日 2018年10月5日
検出光度 20.6等
検出者 K. Sarneczky (Konkoly Observatory)

・ 写真集

・ 軌道要素

Epoch 2018 Dec. 28.0 TT = JDT 2458480.5                                         
T 2018 Dec. 21.43522 TT                                 Rudenko                 
q   1.8951629            (2000.0)            P               Q                  
n   0.07511975     Peri.  119.42593     -0.49077672     -0.87128536             
a   5.5628836      Node   359.96408     +0.65957170     -0.37138253             
e   0.6593201      Incl.   17.36545     +0.56930079     -0.32083771             
P  13.1                                                                         
From 315 observations 2005 Dec. 5-2019 Apr. 28, mean residual 0".7.             

・ 光度変化

        m1 = 15.0 + 5 logΔ + 10.0 log r

---------------------------------------------------------------------

軌道要素はM.P.E.C. 2021-F20に掲載されたものです。
光度グラフはComet for Windowsで作成したものです。

---------------------------------------------------------------------

Copyright(C) Seiichi Yoshida (comet@aerith.net). All rights reserved.